Hourly Data Report for November 10, 2005

TORONTO CITY
ONTARIO

43°40'00.000" N
79°24'00.000" W
112.50 m
6158355
71508
XTO

Download Data

Hourly Data (November 2005)
Hourly Data Report for November 10, 2005
TIME
LST
Temp Definition
°C
Dew Point Definition
°C
Rel Hum Definition
%
Precip. Amount Definition
mm

Wind Dir Definition
10's deg

Wind Spd Definition
km/h
Visibility Definition
km
Stn Press Definition
kPa
Hmdx Definition


Wind Chill Definition


Weather Definition


00:00 7.8 1.9 66   LegendMM LegendMM   98.88     LegendNANA
01:00 7.1 2.2 71   LegendMM LegendMM   98.88     LegendNANA
02:00 5.9 2.5 79   LegendMM LegendMM   98.92     LegendNANA
03:00 5.2 1.6 78   LegendMM LegendMM   98.99     LegendNANA
04:00 4.5 0.0 73   LegendMM LegendMM   99.06     LegendNANA
05:00 4.5 0.2 74   LegendMM LegendMM   99.16     LegendNANA
06:00 3.9 -0.1 75   LegendMM LegendMM   99.30     LegendNANA
07:00 3.4 -0.9 73   LegendMM LegendMM   99.45     LegendNANA
08:00 3.9 -4.2 55   LegendMM LegendMM   99.59     LegendNANA
09:00 4.6 -3.9 54   LegendMM LegendMM   99.71     LegendNANA
10:00 4.8 -3.6 54   LegendMM LegendMM   99.77     LegendNANA
11:00 5.1 -3.6 53   LegendMM LegendMM   99.84     LegendNANA
12:00 4.9 -3.2 56   LegendMM LegendMM   99.85     LegendNANA
13:00 5.3 -3.9 51   LegendMM LegendMM   99.87     LegendNANA
14:00 6.1 -2.8 53   LegendMM LegendMM   99.88     LegendNANA
15:00 6.0 -2.6 54   LegendMM LegendMM   99.91     LegendNANA
16:00 5.8 -3.3 52   LegendMM LegendMM   99.99     LegendNANA
17:00 5.2 -1.8 61   LegendMM LegendMM   100.05     LegendNANA
18:00 4.9 -1.1 65   LegendMM LegendMM   100.13     LegendNANA
19:00 4.8 -1.3 65   LegendMM LegendMM   100.15     LegendNANA
20:00 4.6 -0.8 68   LegendMM LegendMM   100.14     LegendNANA
21:00 4.0 0.0 75   LegendMM LegendMM   100.23     LegendNANA
22:00 3.8 -2.8 62   LegendMM LegendMM   100.25     LegendNANA
23:00 4.1 -3.0 60   LegendMM LegendMM   100.23     LegendNANA

Notes on Data Quality.

Legend

  • E = Estimated
  • M = Missing
  • NA = Not Available*
  • [empty] = Indicates an unobserved value
Date modified: